sat.trackr.live / text

‹ back to catalog

INTELSAT 28 (IS-28)

NORAD 37392 · 2011-016A

PAYLOAD ACTIVE UNKNOWN

§ Identity

Operator
Country
ITSO
Launch date
2011-04-22
Launch site
FRGUI
Launch vehicle
Mass (kg)
RCS (m²)
25.12

Purposes: comms

External: N2YO · Heavens-Above · Gunter

§ Orbital elements

Epoch: 2026-09-19T23:57:38.759328Z

Period
1,436.09 min
Inclination
2.0438°
Eccentricity
0.0003632
Mean motion
1.00272197 rev/d
Perigee alt
35,771.2 km
Apogee alt
35,801.8 km
Semi-major
42,164.6 km
B*
0.0000e+0
RAAN
81.3415°
Arg perigee
100.2145°
Mean anomaly
145.0979°
Rev number
5,423

§ Raw data

INTELSAT 28 (IS-28)1 37392U 11016A   26262.99836527 -.00000228  00000+0  00000+0 0  99912 37392   2.0438  81.3415 0003632 100.2145 145.0979  1.00272197 54230

JSON: /api/v1/satellites/37392 · /tle

For live sub-satellite position, see the globe view (requires WebGL).

§ Visibility from observer

Set your observer location to see the next 7 days of passes ≥ 10°. The values pass through the URL so the page stays shareable.

No JS? Fill the form by hand. The geolocation button needs JavaScript.